Weather in Orlik

Russia / Republic of Buryatia     52°30′35″N   99°49′16″E
temp.,
°C
wind,
m/s
gust,
m/s
humid.,
%
clouds,
%
prec.,
mm/h
press.,
hPa
HPBL,
m
7 march, sun
sun723:00−15ssw2379100 0.0 102426
02:00−16s1176100 0.0 102320
05:00−18ssw117277 0.0 102220
08:00−19sse117055 0.0 102220
11:00−11ese1164100 0.0 1018135
14:00−5n1162100 0.0 1014341
17:00−3w1865100 0.0 10141248
20:00−11sw3372100 0.0 101823
8 march, mon
mon823:00−12sw237893 0.0 102022
02:00−15sw228448 0.0 102320
05:00−15sw238339 0.0 102422
08:00−15sw238344 0.0 102822
11:00−9ssw12770 0.0 1026238
14:00−4sw13641 0.0 1023876
17:00−3sw24645 0.0 1021961
20:00−11ssw33745 0.0 102322
9 march, tue
tue923:00−14s22730 0.0 102221
02:00−16s127423 0.0 102120
05:00−17s117324 0.0 101920
08:00−15s126758 0.0 101920
11:00−6wsw136397 0.0 1019264
14:00−3w466478 0.0 10191348
17:00−4w597498 0.1 10201381
20:00−11wsw237861 0.1 102523
10 march, wed
wed1023:00−14sw238148 0.0 102822
02:00−15ssw228137 0.0 102921
05:00−17ssw118427 0.0 102920
08:00−18s118356 0.0 102920
11:00−11ene117487 0.0 1025194
14:00−7nne117344 0.0 1021284
17:00−5ne11760 0.0 1020230
20:00−12sw11860 0.0 102221
11 march, thu
thu1123:00−14s22686 0.0 102421
02:00−16s12593 0.0 102420
05:00−18sse11620 0.0 102320
08:00−18s11680 0.0 102320
11:00−8sse12680 0.0 1019184
14:00−3se126915 0.0 1015328
17:00−1s1269100 0.0 1014283
20:00−9ssw236889 0.0 101821